sat.trackr.live / text

‹ back to catalog

STARLINK-11312 [DTC]

NORAD 61689 · 2024-195C

PAYLOAD ACTIVE UNKNOWN

§ Identity

Operator
Country
US
Launch date
2024-10-30
Launch site
AFWTR
Launch vehicle
Mass (kg)
RCS (m²)

Purposes: comms

External: N2YO · Heavens-Above · Gunter

§ Orbital elements

Epoch: 2026-05-25T01:12:00.419904Z

Period
91.74 min
Inclination
53.1594°
Eccentricity
0.0000872
Mean motion
15.69711614 rev/d
Perigee alt
359.1 km
Apogee alt
360.3 km
Semi-major
6,737.9 km
B*
3.3383e-5
RAAN
10.0697°
Arg perigee
74.2526°
Mean anomaly
285.8588°
Rev number
9,102

§ Raw data

STARLINK-11312 [DTC]1 61689U 24195C   26145.05000486  .00003458  00000+0  33383-4 0  99952 61689  53.1594  10.0697 0000872  74.2526 285.8588 15.69711614 91022

JSON: /api/v1/satellites/61689 · /tle

For live sub-satellite position, see the globe view (requires WebGL).

§ Visibility from observer

Set your observer location to see the next 7 days of passes ≥ 10°. The values pass through the URL so the page stays shareable.

No JS? Fill the form by hand. The geolocation button needs JavaScript.